TimeEDT,TemperatureF,Dew PointF,Humidity,Sea Level PressureIn,VisibilityMPH,Wind Direction,Wind SpeedMPH,Gust SpeedMPH,PrecipitationIn,Events,Conditions,WindDirDegrees,DateUTC
12:55 AM,66.2,66.2,100,30.03,5.0,Calm,Calm,-,N/A,,Clear,0,2012-10-06 04:55:00
1:15 AM,66.2,66.2,100,30.03,5.0,Calm,Calm,-,N/A,,Clear,0,2012-10-06 05:15:00
1:35 AM,66.2,66.2,100,30.03,5.0,Calm,Calm,-,N/A,,Clear,0,2012-10-06 05:35:00
1:55 AM,66.2,66.2,100,30.03,5.0,Calm,Calm,-,N/A,,Clear,0,2012-10-06 05:55:00
2:15 AM,66.2,66.2,100,30.02,4.0,Calm,Calm,-,N/A,,Clear,0,2012-10-06 06:15:00
2:35 AM,66.2,66.2,100,30.01,4.0,Calm,Calm,-,N/A,,Clear,0,2012-10-06 06:35:00
2:55 AM,66.2,66.2,100,30.01,4.0,Calm,Calm,-,N/A,,Clear,0,2012-10-06 06:55:00
3:15 AM,66.2,66.2,100,30.00,5.0,Calm,Calm,-,N/A,,Clear,0,2012-10-06 07:15:00
3:35 AM,66.2,66.2,100,30.00,5.0,Calm,Calm,-,N/A,,Clear,0,2012-10-06 07:35:00
3:55 AM,66.2,66.2,100,29.99,5.0,Calm,Calm,-,N/A,,Clear,0,2012-10-06 07:55:00
4:15 AM,66.2,66.2,100,29.99,4.0,Calm,Calm,-,N/A,,Clear,0,2012-10-06 08:15:00
4:35 AM,66.2,66.2,100,29.99,5.0,Calm,Calm,-,N/A,,Partly Cloudy,0,2012-10-06 08:35:00
4:55 AM,66.2,66.2,100,29.99,5.0,Calm,Calm,-,N/A,,Mostly Cloudy,0,2012-10-06 08:55:00
5:15 AM,66.2,66.2,100,29.99,5.0,Calm,Calm,-,N/A,,Mostly Cloudy,0,2012-10-06 09:15:00
5:35 AM,66.2,66.2,100,29.99,4.0,Calm,Calm,-,N/A,,Mostly Cloudy,0,2012-10-06 09:35:00
5:55 AM,66.2,66.2,100,29.99,4.0,Calm,Calm,-,N/A,,Overcast,0,2012-10-06 09:55:00
6:15 AM,66.2,66.2,100,29.99,4.0,Calm,Calm,-,N/A,,Mostly Cloudy,0,2012-10-06 10:15:00
6:35 AM,66.2,66.2,100,29.98,4.0,Calm,Calm,-,N/A,,Partly Cloudy,0,2012-10-06 10:35:00
6:55 AM,66.2,66.2,100,29.99,3.0,Calm,Calm,-,N/A,,Clear,0,2012-10-06 10:55:00
7:15 AM,66.2,66.2,100,29.99,3.0,Calm,Calm,-,N/A,,Clear,0,2012-10-06 11:15:00
7:35 AM,64.4,64.4,100,29.99,2.0,Calm,Calm,-,N/A,,Clear,0,2012-10-06 11:35:00
7:55 AM,64.4,64.4,100,30.00,3.0,Calm,Calm,-,N/A,,Clear,0,2012-10-06 11:55:00
8:15 AM,66.2,64.4,94,30.00,2.5,Calm,Calm,-,N/A,,Clear,0,2012-10-06 12:15:00
8:35 AM,66.2,66.2,100,30.00,3.0,Calm,Calm,-,N/A,,Clear,0,2012-10-06 12:35:00
8:55 AM,68.0,68.0,100,30.01,3.0,Calm,Calm,-,N/A,,Clear,0,2012-10-06 12:55:00
9:35 AM,73.4,69.8,88,30.01,8.0,Calm,Calm,-,N/A,,Partly Cloudy,0,2012-10-06 13:35:00
9:55 AM,75.2,69.8,83,30.01,8.0,Calm,Calm,-,N/A,,Clear,0,2012-10-06 13:55:00
10:15 AM,78.8,69.8,74,30.01,9.0,NNW,3.5,-,N/A,,Clear,330,2012-10-06 14:15:00
10:35 AM,78.8,66.2,65,30.01,10.0,NNW,3.5,-,N/A,,Clear,340,2012-10-06 14:35:00
10:55 AM,80.6,66.2,61,30.00,9.0,NW,4.6,-,N/A,,Clear,320,2012-10-06 14:55:00
11:15 AM,82.4,64.4,54,30.00,10.0,NNW,3.5,-,N/A,,Clear,330,2012-10-06 15:15:00
11:35 AM,82.4,64.4,54,30.00,10.0,Calm,Calm,-,N/A,,Light Drizzle,0,2012-10-06 15:35:00
11:55 AM,82.4,66.2,58,30.00,10.0,NW,3.5,-,N/A,,Light Drizzle,320,2012-10-06 15:55:00
12:15 PM,82.4,66.2,58,29.99,10.0,Calm,Calm,-,N/A,,Light Drizzle,0,2012-10-06 16:15:00
12:35 PM,82.4,66.2,58,29.98,10.0,Calm,Calm,-,N/A,,Light Drizzle,0,2012-10-06 16:35:00
12:55 PM,82.4,66.2,58,29.97,10.0,Calm,Calm,-,N/A,,Mostly Cloudy,0,2012-10-06 16:55:00
1:15 PM,84.2,66.2,55,29.96,10.0,South,4.6,-,N/A,,Light Drizzle,190,2012-10-06 17:15:00
1:35 PM,80.6,69.8,70,29.95,9.0,SE,5.8,-,N/A,,Scattered Clouds,140,2012-10-06 17:35:00
1:55 PM,82.4,69.8,66,29.95,9.0,SSE,8.1,-,N/A,,Light Drizzle,160,2012-10-06 17:55:00
2:15 PM,82.4,68.0,62,29.94,10.0,SSE,6.9,-,N/A,,Light Drizzle,150,2012-10-06 18:15:00
2:35 PM,82.4,66.2,58,29.94,10.0,South,6.9,-,N/A,,Light Drizzle,170,2012-10-06 18:35:00
2:55 PM,82.4,68.0,62,29.93,10.0,SSE,8.1,-,N/A,,Light Drizzle,160,2012-10-06 18:55:00
3:15 PM,82.4,66.2,58,29.93,9.0,South,8.1,-,N/A,,Clear,190,2012-10-06 19:15:00
3:35 PM,82.4,66.2,58,29.92,10.0,SSE,5.8,-,N/A,,Light Drizzle,160,2012-10-06 19:35:00
3:55 PM,82.4,68.0,62,29.92,10.0,South,10.4,-,N/A,,Light Drizzle,190,2012-10-06 19:55:00
4:15 PM,82.4,69.8,66,29.91,9.0,South,8.1,-,N/A,,Clear,170,2012-10-06 20:15:00
4:35 PM,82.4,69.8,66,29.91,10.0,SSE,8.1,-,N/A,,Light Drizzle,160,2012-10-06 20:35:00
4:55 PM,82.4,69.8,66,29.91,10.0,South,9.2,-,N/A,,Clear,180,2012-10-06 20:55:00
5:15 PM,82.4,69.8,66,29.90,10.0,SSE,10.4,-,N/A,,Clear,160,2012-10-06 21:15:00
5:35 PM,80.6,69.8,70,29.91,10.0,South,9.2,-,N/A,,Clear,180,2012-10-06 21:35:00
5:55 PM,80.6,69.8,70,29.91,10.0,South,8.1,-,N/A,,Clear,180,2012-10-06 21:55:00
6:15 PM,80.6,69.8,70,29.91,10.0,South,5.8,-,N/A,,Clear,170,2012-10-06 22:15:00
6:35 PM,78.8,69.8,74,29.92,10.0,South,6.9,-,N/A,,Clear,170,2012-10-06 22:35:00
6:55 PM,75.2,69.8,83,29.92,10.0,South,3.5,-,N/A,,Clear,180,2012-10-06 22:55:00
7:15 PM,73.4,69.8,88,29.92,10.0,South,3.5,-,N/A,,Clear,170,2012-10-06 23:15:00
7:35 PM,73.4,69.8,88,29.93,10.0,Calm,Calm,-,N/A,,Clear,0,2012-10-06 23:35:00
7:55 PM,71.6,69.8,94,29.94,10.0,Calm,Calm,-,N/A,,Clear,0,2012-10-06 23:55:00
8:15 PM,71.6,69.8,94,29.94,10.0,Calm,Calm,-,N/A,,Clear,0,2012-10-07 00:15:00
8:35 PM,71.6,69.8,94,29.95,9.0,SSW,3.5,-,N/A,,Clear,200,2012-10-07 00:35:00
8:55 PM,71.6,69.8,94,29.95,8.0,Calm,Calm,-,N/A,,Clear,0,2012-10-07 00:55:00
9:15 PM,71.6,69.8,94,29.96,9.0,South,3.5,-,N/A,,Clear,170,2012-10-07 01:15:00
9:35 PM,71.6,69.8,94,29.96,8.0,South,4.6,-,N/A,,Clear,180,2012-10-07 01:35:00
9:55 PM,71.6,69.8,94,29.96,8.0,Calm,Calm,-,N/A,,Clear,0,2012-10-07 01:55:00
10:15 PM,71.6,69.8,94,29.97,8.0,South,3.5,-,N/A,,Clear,170,2012-10-07 02:15:00
10:35 PM,71.6,69.8,94,29.97,7.0,Calm,Calm,-,N/A,,Clear,0,2012-10-07 02:35:00
10:55 PM,71.6,69.8,94,29.97,7.0,Calm,Calm,-,N/A,,Clear,0,2012-10-07 02:55:00
11:15 PM,69.8,69.8,100,29.97,7.0,South,3.5,-,N/A,,Clear,180,2012-10-07 03:15:00
11:35 PM,69.8,69.8,100,29.96,5.0,Calm,Calm,-,N/A,,Clear,0,2012-10-07 03:35:00
11:55 PM,69.8,69.8,100,29.96,6.0,South,3.5,-,N/A,,Clear,180,2012-10-07 03:55:00